Location: Eitze
(52.9840°N, 9.6894°E)
Time: 07:05:34
(UTC+00:00)

Cosmos 1697 Rocket - Pass Details

Date: 19 May 2025
Orbit: 830 x 844 km, 71.0° (Epoch: 14 June)

Event Time Altitude Azimuth Distance (km) Brightness Sun altitude
Rises 21:17:03 0° 324° (NW) 3,408 7.9 -12.5°
Reaches altitude 10° 21:19:42 10° 315° (NW) 2,470 6.4 -12.7°
Maximum altitude 21:24:43 34° 253° (WSW) 1,364 3.9 -13.0°
Enters shadow 21:29:27 11° 192° (SSW) 2,363 4.6 -13.4°
